Location: Montreal
(45.5000°N, 73.5833°W)
Time: 02:29:13
(UTC-05:00)

Vanguard 1 - Pass Details

Date: 21 October 2017
Orbit: 650 x 3834 km, 34.2° (Epoch: 22 November)

Event Time Altitude Azimuth Distance (km) Brightness Sun altitude
Rises 06:09:56 0° 277° (W) 6,890 - -12.8°
Reaches altitude 10° 06:14:22 10° 271° (W) 6,198 - -12.0°
Exits shadow 06:15:38 13° 269° (W) 6,017 13.4 -11.8°
Maximum altitude 06:33:36 44° 209° (SSW) 4,671 13.3 -8.6°
Drops below altitude 10° 06:53:46 10° 146° (SE) 6,424 14.9 -5.2°
Sets 06:58:32 0° 140° (SE) 7,143 15.4 -4.3°
